Meteo pe oră la Abakaliki

Astăzi, 29 Iulie, Joi

Timp Temperatura Precipitaţii Vânt Presiune Umiditate
00:00 +25°C° 0 mm 2 m/s 754 mmHg 85%
01:00 +25°C° 0 mm 2 m/s 754 mmHg 87%
02:00 +25°C° 0 mm 2 m/s 753 mmHg 89%
03:00 +24°C° 0 mm 2 m/s 753 mmHg 91%
04:00 +24°C° 0 mm 2 m/s 753 mmHg 93%
05:00 +24°C° 0 mm 2 m/s 753 mmHg 93%
06:00 +24°C° 0 mm 2 m/s 753 mmHg 92%
07:00 +24°C° 0 mm 2 m/s 754 mmHg 92%
08:00 +26°C° 0 mm 2 m/s 754 mmHg 87%
09:00 +27°C° 0 mm 2 m/s 754 mmHg 81%
10:00 +28°C° 0 mm 3 m/s 755 mmHg 75%
11:00 +29°C° 0.2 mm 2 m/s 754 mmHg 71%
12:00 +30°C° 0.2 mm 2 m/s 753 mmHg 67%
13:00 +31°C° 0.2 mm 2 m/s 753 mmHg 63%
14:00 +31°C° 0.5 mm 2 m/s 752 mmHg 64%
15:00 +31°C° 0.5 mm 2 m/s 752 mmHg 65%
16:00 +31°C° 0.5 mm 2 m/s 751 mmHg 66%
17:00 +30°C° 0.6 mm 2 m/s 751 mmHg 72%
18:00 +28°C° 0.6 mm 2 m/s 751 mmHg 79%
19:00 +27°C° 0.6 mm 2 m/s 752 mmHg 85%
20:00 +26°C° 0.2 mm 2 m/s 752 mmHg 86%
21:00 +26°C° 0.2 mm 2 m/s 753 mmHg 86%
22:00 +26°C° 0.2 mm 2 m/s 754 mmHg 87%
23:00 +25°C° 0.1 mm 2 m/s 754 mmHg 88%

Mâine, 30 Iulie, Vineri

Timp Temperatura Precipitaţii Vânt Presiune Umiditate
00:00 +25°C° 0.1 mm 2 m/s 754 mmHg 89%
01:00 +25°C° 0.1 mm 2 m/s 754 mmHg 91%
02:00 +25°C° 0 mm 2 m/s 753 mmHg 92%
03:00 +24°C° 0 mm 2 m/s 753 mmHg 93%
04:00 +24°C° 0 mm 2 m/s 753 mmHg 94%
05:00 +24°C° 0 mm 2 m/s 753 mmHg 94%
06:00 +24°C° 0 mm 2 m/s 754 mmHg 93%
07:00 +24°C° 0 mm 2 m/s 754 mmHg 93%
08:00 +25°C° 0 mm 2 m/s 755 mmHg 88%
09:00 +26°C° 0 mm 2 m/s 755 mmHg 83%
10:00 +27°C° 0 mm 3 m/s 755 mmHg 78%
11:00 +28°C° 0.1 mm 3 m/s 755 mmHg 75%
12:00 +29°C° 0.1 mm 3 m/s 754 mmHg 72%
13:00 +29°C° 0.1 mm 4 m/s 753 mmHg 69%
14:00 +29°C° 0.4 mm 3 m/s 753 mmHg 70%
15:00 +29°C° 0.4 mm 3 m/s 752 mmHg 72%
16:00 +29°C° 0.4 mm 3 m/s 752 mmHg 73%
17:00 +28°C° 0.5 mm 2 m/s 752 mmHg 77%
18:00 +27°C° 0.5 mm 2 m/s 752 mmHg 82%
19:00 +26°C° 0.5 mm 1 m/s 753 mmHg 86%
20:00 +26°C° 0.5 mm 1 m/s 753 mmHg 87%
21:00 +26°C° 0.5 mm 2 m/s 754 mmHg 89%
22:00 +25°C° 0.5 mm 2 m/s 755 mmHg 91%
23:00 +25°C° 0.4 mm 2 m/s 754 mmHg 91%

Poimâine, 31 Iulie, Sâmbătă

Timp Temperatura Precipitaţii Vânt Presiune Umiditate
00:00 +25°C° 0.4 mm 2 m/s 754 mmHg 91%
01:00 +25°C° 0.4 mm 2 m/s 754 mmHg 92%
02:00 +25°C° 0.1 mm 2 m/s 754 mmHg 93%
03:00 +25°C° 0.1 mm 2 m/s 754 mmHg 94%
04:00 +25°C° 0.1 mm 2 m/s 754 mmHg 94%
05:00 +25°C° 0.5 mm 2 m/s 754 mmHg 95%
06:00 +25°C° 0.5 mm 2 m/s 754 mmHg 95%
07:00 +24°C° 0.5 mm 1 m/s 755 mmHg 96%
08:00 +25°C° 0.6 mm 1 m/s 755 mmHg 95%
09:00 +25°C° 0.6 mm 1 m/s 756 mmHg 95%
10:00 +25°C° 0.6 mm 1 m/s 756 mmHg 94%
11:00 +26°C° 0.3 mm 1 m/s 755 mmHg 91%
12:00 +26°C° 0.3 mm 1 m/s 755 mmHg 87%
13:00 +27°C° 0.3 mm 1 m/s 755 mmHg 84%
14:00 +27°C° 0.4 mm 1 m/s 754 mmHg 81%
15:00 +28°C° 0.4 mm 1 m/s 754 mmHg 79%
16:00 +28°C° 0.4 mm 1 m/s 753 mmHg 76%
17:00 +27°C° 0.8 mm 1 m/s 754 mmHg 81%
18:00 +26°C° 0.8 mm 1 m/s 754 mmHg 86%
19:00 +26°C° 0.8 mm 1 m/s 754 mmHg 91%
20:00 +25°C° 0.3 mm 1 m/s 755 mmHg 92%
21:00 +25°C° 0.3 mm 1 m/s 755 mmHg 93%
22:00 +25°C° 0.3 mm 1 m/s 755 mmHg 94%
23:00 +25°C° 0 mm 1 m/s 755 mmHg 94%

1 August, Duminică

Timp Temperatura Precipitaţii Vânt Presiune Umiditate
00:00 +25°C° 0 mm 1 m/s 755 mmHg 94%
01:00 +25°C° 0 mm 1 m/s 755 mmHg 94%
02:00 +25°C° 0.1 mm 1 m/s 754 mmHg 95%
03:00 +24°C° 0.1 mm 1 m/s 754 mmHg 95%
04:00 +24°C° 0.1 mm 1 m/s 754 mmHg 95%
05:00 +24°C° 0 mm 1 m/s 754 mmHg 95%
06:00 +25°C° 0 mm 1 m/s 755 mmHg 95%
07:00 +25°C° 0 mm 1 m/s 755 mmHg 94%
08:00 +26°C° 0.1 mm 1 m/s 755 mmHg 90%
09:00 +27°C° 0.1 mm 2 m/s 756 mmHg 86%
10:00 +28°C° 0.1 mm 2 m/s 756 mmHg 82%
11:00 +28°C° 1 mm 2 m/s 756 mmHg 80%
12:00 +29°C° 1 mm 2 m/s 755 mmHg 78%
13:00 +29°C° 1 mm 2 m/s 755 mmHg 76%
14:00 +29°C° 0.8 mm 2 m/s 754 mmHg 75%
15:00 +30°C° 0.8 mm 2 m/s 754 mmHg 75%
16:00 +30°C° 0.8 mm 2 m/s 753 mmHg 75%
17:00 +29°C° 1.7 mm 2 m/s 754 mmHg 79%
18:00 +27°C° 1.7 mm 2 m/s 754 mmHg 83%
19:00 +26°C° 1.7 mm 2 m/s 755 mmHg 88%
20:00 +26°C° 1.2 mm 2 m/s 755 mmHg 89%
21:00 +26°C° 1.2 mm 2 m/s 756 mmHg 90%
22:00 +25°C° 1.2 mm 2 m/s 756 mmHg 92%
23:00 +25°C° 0.2 mm 1 m/s 756 mmHg 92%

2 August, Luni

Timp Temperatura Precipitaţii Vânt Presiune Umiditate
00:00 +25°C° 0.2 mm 1 m/s 756 mmHg 93%
01:00 +23°C° 0.2 mm 0 m/s 755 mmHg 93%
02:00 +23°C° 0 mm 0 m/s 755 mmHg 93%
03:00 +23°C° 0 mm 0 m/s 755 mmHg 93%
04:00 +23°C° 0 mm 0 m/s 755 mmHg 92%
05:00 +23°C° 0 mm 0 m/s 755 mmHg 92%
06:00 +25°C° 0 mm 1 m/s 756 mmHg 92%
07:00 +25°C° 0 mm 1 m/s 756 mmHg 92%
08:00 +26°C° 0.2 mm 1 m/s 756 mmHg 88%
09:00 +27°C° 0.2 mm 2 m/s 756 mmHg 83%
10:00 +28°C° 0.2 mm 2 m/s 757 mmHg 78%
11:00 +29°C° 0.1 mm 3 m/s 756 mmHg 74%
12:00 +30°C° 0.1 mm 3 m/s 755 mmHg 71%
13:00 +30°C° 0.1 mm 3 m/s 755 mmHg 67%
14:00 +30°C° 0.1 mm 3 m/s 754 mmHg 67%
15:00 +31°C° 0.1 mm 3 m/s 753 mmHg 67%
16:00 +31°C° 0.1 mm 2 m/s 753 mmHg 67%
17:00 +30°C° 0.1 mm 2 m/s 753 mmHg 70%
18:00 +29°C° 0.1 mm 1 m/s 753 mmHg 73%
19:00 +28°C° 0.1 mm 1 m/s 754 mmHg 76%
20:00 +28°C° 0 mm 1 m/s 754 mmHg 77%
21:00 +27°C° 0 mm 1 m/s 754 mmHg 78%
22:00 +27°C° 0 mm 1 m/s 755 mmHg 79%
23:00 +26°C° 0 mm 1 m/s 755 mmHg 82%

3 August, Marţi

Timp Temperatura Precipitaţii Vânt Presiune Umiditate
00:00 +26°C° 0 mm 2 m/s 755 mmHg 84%
01:00 +25°C° 0 mm 2 m/s 755 mmHg 87%
02:00 +25°C° 0 mm 2 m/s 755 mmHg 88%
03:00 +25°C° 0 mm 2 m/s 755 mmHg 89%
04:00 +24°C° 0 mm 2 m/s 755 mmHg 91%
05:00 +24°C° 0 mm 2 m/s 755 mmHg 91%
06:00 +24°C° 0 mm 1 m/s 755 mmHg 91%
07:00 +24°C° 0 mm 1 m/s 756 mmHg 92%
08:00 +26°C° 0 mm 2 m/s 756 mmHg 86%
09:00 +27°C° 0 mm 2 m/s 756 mmHg 81%
10:00 +28°C° 0 mm 2 m/s 756 mmHg 75%
11:00 +29°C° 0 mm 2 m/s 756 mmHg 73%
12:00 +29°C° 0 mm 2 m/s 755 mmHg 71%
13:00 +30°C° 0 mm 2 m/s 755 mmHg 68%
14:00 +30°C° 0 mm 3 m/s 754 mmHg 68%
15:00 +30°C° 0 mm 3 m/s 753 mmHg 68%
16:00 +30°C° 0 mm 3 m/s 753 mmHg 67%
17:00 +29°C° 0.1 mm 2 m/s 753 mmHg 72%
18:00 +28°C° 0.1 mm 2 m/s 753 mmHg 76%
19:00 +27°C° 0.1 mm 2 m/s 753 mmHg 80%
20:00 +27°C° 0 mm 2 m/s 754 mmHg 82%
21:00 +26°C° 0 mm 2 m/s 754 mmHg 84%
22:00 +26°C° 0 mm 2 m/s 755 mmHg 86%
23:00 +25°C° 0.3 mm 2 m/s 755 mmHg 88%
Arată mai mult

Formular de consimțământ

Meteoprog și furnizorii noștri de servicii pot stoca și accesa date personale, precum cookies, identificatori de dispozitiv sau alte tehnologii similare pe dispozitivul dumneavoastră și procesa astfel de date pentru a personaliza conținutul și reclamele, dar și pentru a oferi caracteristici de social media și pentru a analiza traficul.

  • Stocarea și/sau accesarea informațiilor pe dispozitivul dumneavoastră

    Cookies, identificatori de dispozitiv sau alte informații pot fi stocate sau accesate pe dispozitiv în scopurile indicate mai sus.

  • Reclame și conținut personalizat, evaluarea reclamelor și a conținutului, informații despre audiențe și dezvoltarea produselor

    Reclamele și conținutul pot fi personalizate pe baza unui profil. Pot fi adăugate date suplimentare pentru a personaliza mai bine reclamele și conținutul. Performanța reclamelor și conținutului poate fi măsurată. Pot fi obținute informații despre utilizatorii care au văzut reclamele și conținutul. Aceste date pot fi utilizate pentru a dezvolta sau îmbunătăți experiența utilizatorilor, sistemele și software-ul.

Dând clic pe ‘Sunt de acord’, permiteți utilizarea cookie-urilor menționate, a identificatorilor de dispozitiv, balizelor web sau altor tehnologii similare. Setările pot fi modificate din browser-ul dispozitivului dumneavoastră.

În anumite scopuri, interesele legitime pot prima asupra consimțământului. Puteți citi mai multe informații în acest sens în Politica privind Confidențialitatea Datelor și Cookie.